Home > Weather > Kranj > Past weeks

Flag for Slovenia Past Weather in Kranj, Slovenia — Yesterday and Last 2 Weeks

Now
64 °F

Clear.


Feels Like: 64 °F
Forecast: 60 / 85 °F
Wind: No wind

Location: Ljubljana Airport / Brnik

Current Time: Jul 30, 2016 at 1:47:02 AM

Latest Report: Jul 30, 2016 at 1:00 AM


Visibility: 10 mi

Pressure: 30.04 "Hg

Humidity: 94%

Dew Point: 63 °F

Location of KranjLocation

Past Weather in Kranj — Graph

°F

Kranj Temperature Yesterday

Maximum temperature yesterday: 82 °F (at 4:00 PM)
Minimum temperature yesterday: 61 °F (at 3:00 AM)
Average temperature yesterday: 70 °F

High & Low Weather Summary for the Past Weeks

 TemperatureHumidityPressure
High90 °F (Jul 23, 4:30 PM)100% (Jul 19, 12:30 AM)30.21 "Hg (Jul 19, 12:30 AM)
Low52 °F (Jul 15, 5:00 AM)33% (Jul 23, 4:30 PM)29.95 "Hg (Jul 21, 5:30 PM)
Average70 °F73%30.05 "Hg
* Reported Jul 15 12:00 AM — Jul 30 12:30 AM, Kranj, Weather by CustomWeather, © 2016

Note: Actual official high and low records may vary slightly from our data, if they occured in-between our weather recording intervals... More about our weather records

Advertising

Kranj Weather History for the Previous 24 Hours

Scroll right to see more
 ConditionsComfort  
Time TempWeatherWind HumidityBarometerVisibility
12:30 AM
Sat, Jul 30
64 °FClear.1 mph94%30.04 "Hg10 mi
12:00 AM64 °FClear.1 mph94%30.01 "Hg10 mi
11:30 PM
Fri, Jul 29
66 °FClear.No wind88%30.01 "Hg10 mi
11:00 PM66 °FClear.No wind88%30.01 "Hg10 mi
10:30 PM68 °FClear.No wind88%30.01 "Hg10 mi
10:00 PM70 °FClear.No wind83%30.01 "Hg10 mi
9:30 PM72 °FPassing clouds.1 mph78%29.98 "HgN/A
9:00 PM73 °FPassing clouds.2 mph74%29.98 "HgN/A
8:30 PM75 °FPassing clouds.1 mph74%29.98 "HgN/A
8:00 PM79 °FPassing clouds.3 mph65%29.95 "HgN/A
7:30 PM81 °FPassing clouds.3 mph58%29.95 "HgN/A
7:00 PM82 °FPassing clouds.5 mph48%29.95 "HgN/A
6:30 PM82 °FPassing clouds.3 mph48%29.95 "HgN/A
6:00 PM82 °FPassing clouds.2 mph48%29.95 "HgN/A
5:30 PM81 °FPassing clouds.2 mph51%29.98 "HgN/A
5:00 PM82 °FPassing clouds.2 mph51%29.98 "HgN/A
4:30 PM82 °FPassing clouds.1 mph48%29.98 "HgN/A
4:00 PM82 °FPassing clouds.5 mph48%29.98 "HgN/A
3:00 PM81 °FScattered clouds.2 mph54%30.01 "HgN/A
2:30 PM81 °FPassing clouds.3 mph54%30.01 "HgN/A
2:00 PM79 °FPassing clouds.5 mph58%30.01 "HgN/A
1:30 PM79 °FPassing clouds.2 mph54%30.01 "HgN/A
1:00 PM79 °FPassing clouds.5 mph58%30.01 "HgN/A
12:30 PM77 °FPassing clouds.3 mph61%30.04 "HgN/A
12:00 PM75 °FPassing clouds.1 mph65%30.04 "HgN/A
11:30 AM73 °FPassing clouds.3 mph69%30.04 "HgN/A
11:00 AM72 °FPassing clouds.1 mph78%30.04 "HgN/A
10:30 AM70 °FScattered clouds.1 mph83%30.07 "HgN/A
10:00 AM68 °FPartly sunny.2 mph83%30.07 "HgN/A
9:30 AM64 °FPartly sunny.No wind94%30.04 "HgN/A
9:00 AM63 °FFog.No wind100%30.04 "Hg2 mi
8:30 AM63 °FFog.No wind94%30.04 "Hg1 mi
8:00 AM61 °FFog.1 mph100%30.04 "Hg1 mi
7:30 AM61 °FFog.No wind100%30.04 "Hg1 mi
7:00 AM61 °FCool.1 mph100%30.04 "Hg1 mi
6:30 AM61 °FFog.No wind100%30.04 "Hg1 mi
6:00 AM61 °FFog.No wind100%30.04 "Hg1 mi
5:30 AM61 °FFog.No wind94%30.04 "Hg2 mi
5:00 AM61 °FFog.No wind94%30.01 "Hg0 mi
4:30 AM61 °FFog.No wind100%30.01 "Hg0 mi
4:00 AM61 °FPassing clouds.No wind100%30.01 "Hg0 mi
3:30 AM61 °FPassing clouds.3 mph100%30.01 "HgN/A
3:00 AM61 °FPassing clouds.3 mph100%30.01 "HgN/A
2:30 AM63 °FPassing clouds.No wind100%30.01 "HgN/A
2:00 AM63 °FPartly cloudy.No wind100%30.01 "HgN/A
1:30 AM63 °FPartly cloudy.No wind100%30.04 "HgN/A
1:00 AM63 °FPartly cloudy.No wind100%30.04 "HgN/A
Weather by CustomWeather, © 2016

See weather overviewHow to use our weather pages